This demonstration page uses our WeatherBlox Daily Observations layout. Learn more.

Left ArrowRight Arrow

30.21309, -93.2044

Hourly Observations for August 6, 2022

Temp ( °F °C ) Dew Point ( °F °C ) Humidity (%) Winds ( mph kmh ) Pressure ( in mb ) Visibility ( mi km ) Precip ( " mm )
12:15 am 00:15 Clear 76 24.7 74 23.1 91 91 ESE 8 13 30.02 1017 10 16 0.00 0.00
12:35 am 00:35 Mostly Cloudy 76 24.7 74 23.2 91 91 ESE 8 13 30.02 1017 10 16 0.00 0.00
12:55 am 00:55 Mostly Cloudy 76 24.7 74 23.2 91 91 ESE 7 11 30.03 1017 10 16 0.00 0.00
1:15 am 01:15 Partly Cloudy 76 24.5 74 23.2 92 92 ESE 7 11 30.03 1017 10 16 0.00 0.00
1:35 am 01:35 Partly Cloudy 76 24.4 74 23.2 93 93 ESE 7 11 30.02 1017 10 16 0.00 0.00
1:55 am 01:55 Partly Cloudy 76 24.3 74 23.2 94 94 ESE 7 11 30.02 1017 10 16 0.00 0.00
2:15 am 02:15 Clear 76 24.3 74 23.2 94 94 ESE 6 9 30.02 1017 10 16 0.00 0.00
2:35 am 02:35 Clear 76 24.4 74 23.2 93 93 E 7 11 30.02 1017 10 16 0.00 0.00
2:55 am 02:55 Clear 76 24.4 74 23.1 92 92 E 7 11 30.02 1017 10 16 0.00 0.00
3:15 am 03:15 Clear 76 24.2 73 23 93 93 E 6 9 30.02 1017 10 16 0.00 0.00
3:35 am 03:35 Clear 76 24.3 74 23.2 94 94 ESE 6 9 30.02 1017 10 16 0.00 0.00
3:55 am 03:55 Clear 76 24.3 74 23.1 93 93 Calm 30.02 1017 10 16 0.00 0.00
4:15 am 04:15 Clear 76 24.3 73 23 92 92 E 3 6 30.02 1017 10 16 0.00 0.00
4:35 am 04:35 Clear 75 24 73 22.9 94 94 ENE 3 6 30.03 1017 10 16 0.00 0.00
4:55 am 04:55 Clear 76 24.2 74 23.1 94 94 ENE 3 6 30.03 1017 10 16 0.00 0.00
5:15 am 05:15 Mostly Cloudy 76 24.5 74 23.4 94 94 NE 5 7 30.04 1017 10 16 0.00 0.00
5:35 am 05:35 Cloudy 76 24.5 74 23.4 94 94 ENE 6 9 30.05 1018 10 16 0.00 0.00
6:00 am 06:00 Mostly Cloudy 75 24 73 23 94 94 E 6 9 30.05 1018 10 16 0.00 0.00
6:51 am 06:51 Partly Cloudy 75 24 73 23 94 94 E 6 9 30.07 1018 10 16 0.00 0.00
7:51 am 07:51 Partly Cloudy 79 26 75 24 89 89 E 8 13 30.08 1019 10 16 0.00 0.00
8:51 am 08:51 Mostly Sunny 81 27 75 24 84 84 E 9 15 30.10 1019 10 16 0.00 0.00
9:53 am 09:53 Partly Cloudy 84 29 77 25 79 79 ESE 10 17 30.10 1019 10 16 0.00 0.00
10:52 am 10:52 Mostly Cloudy 88 31 77 25 70 70 SE 14 22 30.11 1020 10 16 0.00 0.00
11:55 am 11:55 Mostly Cloudy with Thunderstorms 88 31 75 24 66 66 S 13 20 30.10 1019 10 16 0.00 0.00
12:55 pm 12:55 Mostly Cloudy with Thunderstorms 84 29 72 22 66 66 WSW 6 9 30.10 1019 7 11 0.00 0.00
1:47 pm 13:47 Partly Cloudy 90 32 77 25 67 67 WSW 9 15 30.09 1019 10 16 0.00 0.00
2:45 pm 14:45 Mostly Cloudy with Thunderstorms 82 28 75 24 79 79 WSW 10 17 30.08 1019 10 16 0.00 0.00
3:50 pm 15:50 Mostly Cloudy 84 29 75 24 74 74 ESE 8 13 30.07 1018 10 16 0.00 0.00
4:45 pm 16:45 Mostly Cloudy 88 31 77 25 70 70 SSE 8 13 30.06 1018 10 16 0.00 0.00
5:52 pm 17:52 Mostly Cloudy 88 31 75 24 66 66 S 10 17 30.05 1018 10 16 0.00 0.00
6:53 pm 18:53 Mostly Cloudy 86 30 75 24 70 70 S 9 15 30.05 1018 10 16 0.00 0.00
7:52 pm 19:52 Mostly Cloudy 84 29 75 24 74 74 SSW 9 15 30.07 1018 10 16 0.00 0.00
8:52 pm 20:52 Mostly Cloudy 81 27 75 24 84 84 SSE 6 9 30.09 1019 10 16 0.00 0.00
9:45 pm 21:45 Mostly Clear 79 26 75 24 89 89 SSE 6 9 30.09 1019 10 16 0.00 0.00
10:15 pm 22:15 Clear 78 25.6 75 23.7 89 89 Calm 30.10 1019 10 16 0.00 0.00
10:35 pm 22:35 Clear 79 25.9 75 23.7 88 88 Calm 30.10 1019 10 16 0.00 0.00
10:55 pm 22:55 Clear 78 25.3 74 23.6 90 90 ESE 3 6 30.10 1019 10 16 0.00 0.00
11:15 pm 23:15 Clear 77 25 74 23.5 91 91 E 3 6 30.10 1019 10 16 0.00 0.00
11:35 pm 23:35 Clear 77 25.1 75 23.7 92 92 E 6 9 30.10 1019 10 16 0.00 0.00
11:55 pm 23:55 Clear 76 24.6 74 23.3 93 93 ESE 6 9 30.10 1019 10 16 0.00 0.00

Powered by AerisWeather